Location: Canazei
(46.4667°N, 11.7667°E)
Time: 03:50:52
(UTC+00:00)

USA 81 - Pass Details

Date: 21 April 2021
Orbit: 785 x 788 km, 85.0° (Epoch: 07 May)

Event Time Altitude Azimuth Distance (km) Brightness Sun altitude
Rises 02:05:29 0° 354° (N) 3,291 7.8 -19.9°
Reaches altitude 10° 02:07:51 10° 354° (N) 2,358 7.0 -19.6°
Maximum altitude 02:13:10 90° 342° (NNW) 794 4.0 -18.9°
Enters shadow 02:17:19 17° 176° (S) 1,909 5.7 -18.4°
